STARLINK-30766, 58125

Orbit data source: Space-Track

STARLINK-30766, 58125 is a payload satellite owned by SpaceX/Seattle (US) in LEO that was launched on Sun, 22 Oct 2023 UTC via an FALCON 9 launch vehicle from the Air Force Eastern Test Range (AFETR). Payload-class satellites include a variety of spacecraft equipped with specific instruments for various scientific and technological missions. These include communications satellites like Starlink; space stations such as the ISS; scientific satellites like the Hubble; Earth observation satellites from companies like Planet Labs, Umbra, and HawkEye 360; GPS; miniature CubeSats for education and research; and military/defense satellites.

Loading next visibility...
Identifier
58125, 2023-162H
Orbit
LEO
Country
Flag of USUS
Related business
Manufacturer
SpaceX/Seattle
Mission
Operational Commercial Communications
Bus & Motor
STARLINK V2M, Unknown motor
Mass
730 kg wet, ~700 kg dry
Launch date (UTC)
2023-10-22 (2 years ago)
Launch vehicle
FALCON 9
Launch site
Air Force Eastern Test Range (AFETR)
Object type
Payload
Rocket body
Debris
Shape & HBR
Box + 2 Pan, 14.5 m
Radar Cross Section
33.884 m², Large (>1 m²)

Expand to show TLE details & history
Last TLE update: 21 hours ago

TLE from 21 hours ago
0 STARLINK-30766
1 58125U 23162H   25252.09090912  .00001116  00000-0  97645-4 0  9995
2 58125  43.0046  39.7747 0001323 269.9069  90.1621 15.02537439104987
Epoch: 2025-09-09T02:10Z
TLE epoch observation values (Epoch: 2025-09-09T02:10:54.547Z)
Latitude
-0.00009°
Longitude
18.66066°
Altitude
558.856 km
Speed
7.584 km/s
True Right ascension
02h 39m 05s
True Declination
0° 00' 00"
Sunlit
Object was in full shadow at epoch
Visualization orbit readout
Latitude
Unknown
Longitude
Unknown
Altitude
Unknown
Speed
Unknown
Apparent Right ascension
Unknown
Apparent Declination
Unknown
Sunlit
N/A
Visualization observer readout
Local Sidereal Time
14:59:23
Azimuth
Unknown
Elevation
Unknown
Doppler factor
Unknown
Orbital elements
Apogee altitude
561.916 km
Perigee altitude
560.08 km
Semi-major axis
6,939.135 km
Eccentricity
0.00013
Inclination
43.0046°
RAAN
39.7747°
Arg. of periapsis
269.9069°
True anomaly
90.17726°
Mean anomaly
90.1621°
Eccentric anomaly
90.16968°
Mean motion
3.75479 °/min
Orbital period
95.88 mins
BSTAR
0.000097645
Loading maneuver chart data...
Computing Atmospheric mass density...
Loading historical data...
Loading historical data...
Loading historical data...
Loading historical data...
Loading historical data...
Loading historical data...
Loading historical data...

Documentation

Showing up to 5 results
|